Location: Street
(51.1247°N, 2.7429°W)
Time: 09:32:41
(UTC+01:00)

UWE-3 - Pass Details

Date: 09 April 2023
Orbit: 576 x 669 km, 97.7° (Epoch: 02 June)

Event Time Altitude Azimuth Distance (km) Brightness Sun altitude
Rises 03:25:05 0° 22° (NNE) 2,941 ? -24.9°
Reaches altitude 10° 03:27:36 10° 34° (NE) 2,010 ? -24.6°
Maximum altitude 03:31:21 27° 93° (E) 1,181 ? -24.3°
Enters shadow 03:33:00 21° 130° (SE) 1,372 ? -24.1°
